Find Starlink 31146

NORAD ID: 58769 Int'l Des: 2024-011 Owner: SPXS Country: US Constellation: starlink operational
LEOCIRCULAR

Live Position

Loading 3D Globe...

About Starlink 31146

Description loading...

Upcoming Passes

Passes for default location (London). Set your location on the main map for personalized predictions.

Altitude History

Loading altitude history...

Two-Line Element Set

1 58769U 24011E 26125.26789448 .00000111 00000-0 15871-4 0 9996
2 58769 53.1594 110.8081 0001128 94.2265 265.8864 15.30197789128935
Epoch: May 5, 2026 • Age: 11 hours

Current Status

Altitude 480.0 km
Velocity 7.63 km/s
Sub-Earth Point 48.72°N, 98.65°E
Launch Date Jan 14, 2024
Age 2.3 years
Type internet

Technical Details

Classification Payload
Mass 730.00 kg
Dry Mass 700.00 kg
Total Mass 730.00 kg
Length 0.30 m
Diameter 4.10 m
Span 29.00 m
Shape Box + pan
Manufacturer SPXS
Bus Type Starlink V2M
Phase Status In Orbit
Owner/State SPXS/US

Most Searched